Location: Bocchiglicro
(39.4167°N, 16.7500°E)
Time: 13:44:39
(UTC+00:00)

USA 32 - Pass Details

Date: 07 June 2020
Orbit: 775 x 784 km, 85.0° (Epoch: 01 July)

Event Time Altitude Azimuth Distance (km) Brightness Sun altitude
Rises 02:43:12 0° 182° (S) 3,239 6.9 -7.7°
Reaches altitude 10° 02:45:32 10° 182° (S) 2,317 6.1 -7.3°
Maximum altitude 02:50:44 88° 94° (E) 783 4.1 -6.5°
Drops below altitude 10° 02:55:59 10° 5° (N) 2,338 7.1 -5.7°
Sets 02:58:21 0° 5° (N) 3,271 7.9 -5.3°
